Location: Great Chart
(51.1333°N, 0.8333°E)
Time: 10:34:31
(UTC+00:00)

Cosmos 2297 Rocket - Pass Details

Date: 19 September 2020
Orbit: 838 x 845 km, 71.0° (Epoch: 30 October)

Event Time Altitude Azimuth Distance (km) Brightness Sun altitude
Rises 02:05:22 0° 328° (NNW) 3,414 5.6 -30.2°
Reaches altitude 10° 02:07:50 10° 327° (NNW) 2,476 4.8 -30.0°
Enters shadow 02:10:45 32° 320° (NW) 1,434 3.4 -29.7°
